| time (UTC) | temp C | wind direction | speed KPH | gust KPH | rain 1hr cm | rain 24hr cm | rain mn cm | humidity % | barometer mb |
| 20260506104716 | 23 | 289 | 1.6 | 4.8 | 0.00 | 0.00 | 0.00 | 91 | 1008.1 |
| 20260506104003 | 23 | 133 | 0.0 | 4.8 | 0.00 | 0.00 | 0.00 | 91 | 1008.1 |
| 20260506103716 | 23 | 135 | 0.0 | 4.8 | 0.00 | 0.00 | 0.00 | 91 | 1008.0 |
| 20260506103217 | 23 | 179 | 1.6 | 4.8 | 0.00 | 0.00 | 0.00 | 91 | 1007.8 |
| 20260506102503 | 23 | 188 | 0.0 | 3.2 | 0.00 | 0.00 | 0.00 | 91 | 1007.9 |
| 20260506102003 | 23 | 196 | 1.6 | 3.2 | 0.00 | 0.00 | 0.00 | 91 | 1007.7 |
| 20260506101503 | 23 | 206 | 1.6 | 4.8 | 0.00 | 0.00 | 0.00 | 91 | 1007.7 |
| 20260506101003 | 23 | 258 | 1.6 | 4.8 | 0.00 | 0.00 | 0.00 | 91 | 1007.7 |
| 20260506100503 | 23 | 255 | 1.6 | 4.8 | 0.00 | 0.00 | 0.00 | 91 | 1007.7 |
| 20260506100003 | 23 | 222 | 0.0 | 6.4 | 0.00 | 0.00 | 0.00 | 91 | 1007.6 |
| 20260506095503 | 23 | 208 | 1.6 | 6.4 | 0.00 | 0.00 | 0.00 | 90 | 1007.5 |
| 20260506095003 | 23 | 199 | 1.6 | 8.0 | 0.00 | 0.00 | 0.00 | 90 | 1007.5 |
| 20260506094503 | 23 | 191 | 1.6 | 8.0 | 0.00 | 0.00 | 0.00 | 90 | 1007.3 |
| 20260506094003 | 23 | 178 | 1.6 | 6.4 | 0.00 | 0.00 | 0.00 | 90 | 1007.3 |
| 20260506093718 | 23 | 187 | 1.6 | 6.4 | 0.00 | 0.00 | 0.00 | 90 | 1007.2 |
| 20260506093217 | 23 | 213 | 1.6 | 6.4 | 0.00 | 0.00 | 0.00 | 90 | 1007.3 |
| 20260506092503 | 23 | 199 | 1.6 | 6.4 | 0.00 | 0.00 | 0.00 | 90 | 1007.0 |
| 20260506092003 | 23 | 195 | 1.6 | 6.4 | 0.00 | 0.00 | 0.00 | 91 | 1007.1 |
| 20260506091503 | 23 | 206 | 1.6 | 6.4 | 0.00 | 0.00 | 0.00 | 90 | 1006.9 |
| 20260506091003 | 23 | 200 | 1.6 | 8.0 | 0.00 | 0.00 | 0.00 | 90 | 1006.9 |
| 20260506090503 | 23 | 197 | 1.6 | 8.0 | 0.00 | 0.00 | 0.00 | 90 | 1006.9 |
| 20260506090217 | 23 | 204 | 3.2 | 8.0 | 0.00 | 0.00 | 0.00 | 90 | 1006.8 |
| 20260506085503 | 23 | 214 | 3.2 | 9.7 | 0.00 | 0.00 | 0.00 | 90 | 1006.8 |
| 20260506085003 | 23 | 210 | 1.6 | 9.7 | 0.00 | 0.00 | 0.00 | 90 | 1007.1 |
| 20260506084718 | 23 | 198 | 1.6 | 9.7 | 0.00 | 0.00 | 0.00 | 90 | 1006.9 |
| 20260506084003 | 23 | 207 | 3.2 | 9.7 | 0.00 | 0.00 | 0.00 | 90 | 1007.0 |
| 20260506083503 | 23 | 190 | 1.6 | 8.0 | 0.00 | 0.00 | 0.00 | 90 | 1007.1 |
| 20260506083217 | 23 | 201 | 1.6 | 8.0 | 0.00 | 0.00 | 0.00 | 90 | 1007.1 |
| 20260506082503 | 23 | 178 | 1.6 | 9.7 | 0.00 | 0.00 | 0.00 | 90 | 1007.0 |
| 20260506082003 | 23 | 174 | 1.6 | 9.7 | 0.00 | 0.00 | 0.00 | 90 | 1006.9 |
| 20260506081503 | 23 | 195 | 1.6 | 9.7 | 0.00 | 0.00 | 0.00 | 90 | 1007.1 |
| 20260506081003 | 23 | 195 | 1.6 | 11.3 | 0.00 | 0.00 | 0.00 | 90 | 1007.0 |
| 20260506080503 | 23 | 184 | 3.2 | 11.3 | 0.00 | 0.00 | 0.00 | 90 | 1007.0 |
| 20260506073503 | 24 | 199 | 3.2 | 12.9 | 0.00 | 0.00 | 0.00 | 89 | 1007.2 |
| 20260506073003 | 24 | 196 | 3.2 | 12.9 | 0.00 | 0.00 | 0.00 | 89 | 1007.3 |
| 20260506072503 | 24 | 196 | 3.2 | 11.3 | 0.00 | 0.00 | 0.00 | 90 | 1007.4 |
| 20260506072218 | 24 | 197 | 3.2 | 11.3 | 0.00 | 0.00 | 0.00 | 90 | 1007.3 |
| 20260506071503 | 23 | 189 | 3.2 | 11.3 | 0.00 | 0.00 | 0.00 | 90 | 1007.5 |
| 20260506071218 | 23 | 186 | 3.2 | 11.3 | 0.00 | 0.00 | 0.00 | 90 | 1007.4 |
| 20260506070503 | 23 | 194 | 3.2 | 8.0 | 0.00 | 0.00 | 0.00 | 90 | 1007.5 |
| 20260506062503 | 24 | 203 | 3.2 | 12.9 | 0.00 | 0.00 | 0.00 | 89 | 1007.5 |
| 20260506062003 | 24 | 196 | 3.2 | 11.3 | 0.00 | 0.00 | 0.00 | 89 | 1007.7 |
| 20260506061503 | 24 | 215 | 3.2 | 11.3 | 0.00 | 0.00 | 0.00 | 89 | 1007.4 |
| 20260506061003 | 24 | 193 | 4.8 | 16.1 | 0.00 | 0.00 | 0.00 | 89 | 1007.4 |
| 20260506060503 | 24 | 186 | 3.2 | 16.1 | 0.00 | 0.00 | 0.00 | 89 | 1007.6 |
| 20260506051217 | 24 | 162 | 3.2 | 11.3 | 0.00 | 0.00 | 0.00 | 89 | 1007.5 |
| 20260506050503 | 24 | 207 | 3.2 | 11.3 | 0.00 | 0.00 | 0.00 | 89 | 1007.6 |
| 20260506045003 | 24 | 200 | 1.6 | 8.0 | 0.00 | 0.00 | 0.00 | 88 | 1007.6 |
| 20260506044503 | 24 | 199 | 3.2 | 16.1 | 0.00 | 0.00 | 0.00 | 88 | 1007.8 |
| 20260506044217 | 24 | 198 | 3.2 | 16.1 | 0.00 | 0.00 | 0.00 | 87 | 1007.6 |
| 20260506043503 | 25 | 182 | 3.2 | 9.7 | 0.00 | 0.00 | 0.00 | 87 | 1007.8 |
| 20260506043003 | 25 | 190 | 1.6 | 6.4 | 0.00 | 0.00 | 0.00 | 87 | 1007.5 |
| 20260506042503 | 25 | 187 | 1.6 | 8.0 | 0.00 | 0.00 | 0.00 | 87 | 1007.5 |
| 20260506042003 | 25 | 181 | 1.6 | 8.0 | 0.00 | 0.00 | 0.00 | 87 | 1007.3 |
| 20260506041503 | 25 | 182 | 1.6 | 9.7 | 0.00 | 0.00 | 0.00 | 87 | 1007.3 |
| 20260506041003 | 25 | 189 | 1.6 | 9.7 | 0.00 | 0.00 | 0.00 | 87 | 1007.5 |
| 20260506040718 | 25 | 193 | 3.2 | 9.7 | 0.00 | 0.00 | 0.00 | 87 | 1007.3 |
| 20260506040003 | 25 | 179 | 1.6 | 6.4 | 0.00 | 0.00 | 0.00 | 87 | 1007.2 |
| 20260506035503 | 25 | 179 | 1.6 | 8.0 | 0.00 | 0.00 | 0.00 | 87 | 1007.2 |
| 20260506035003 | 25 | 183 | 1.6 | 8.0 | 0.00 | 0.00 | 0.00 | 87 | 1007.0 |
| 20260506034503 | 25 | 198 | 1.6 | 11.3 | 0.00 | 0.00 | 0.00 | 87 | 1007.1 |
| 20260506034003 | 25 | 203 | 3.2 | 11.3 | 0.00 | 0.00 | 0.00 | 86 | 1007.1 |
| 20260506033503 | 25 | 198 | 3.2 | 9.7 | 0.00 | 0.00 | 0.00 | 86 | 1007.0 |
| 20260506033003 | 25 | 178 | 1.6 | 9.7 | 0.00 | 0.00 | 0.00 | 86 | 1007.1 |
| 20260506032718 | 25 | 170 | 1.6 | 8.0 | 0.00 | 0.00 | 0.00 | 86 | 1006.9 |
| 20260506032003 | 25 | 202 | 3.2 | 6.4 | 0.00 | 0.00 | 0.00 | 86 | 1006.7 |
| 20260506031503 | 25 | 197 | 3.2 | 9.7 | 0.00 | 0.00 | 0.00 | 85 | 1006.8 |
| 20260506031217 | 25 | 186 | 3.2 | 9.7 | 0.00 | 0.00 | 0.00 | 85 | 1006.9 |
| 20260506030717 | 25 | 182 | 1.6 | 9.7 | 0.00 | 0.00 | 0.00 | 85 | 1006.6 |
| 20260506030003 | 25 | 183 | 3.2 | 9.7 | 0.00 | 0.00 | 0.00 | 85 | 1006.4 |
| 20260506025717 | 25 | 188 | 3.2 | 9.7 | 0.00 | 0.00 | 0.00 | 85 | 1006.4 |
| 20260506025003 | 25 | 210 | 3.2 | 9.7 | 0.00 | 0.00 | 0.00 | 84 | 1006.4 |
| 20260506024503 | 25 | 205 | 3.2 | 9.7 | 0.00 | 0.00 | 0.00 | 84 | 1006.3 |
| 20260506024003 | 25 | 189 | 1.6 | 8.0 | 0.00 | 0.00 | 0.00 | 84 | 1006.3 |
| 20260506023717 | 25 | 199 | 3.2 | 6.4 | 0.00 | 0.00 | 0.00 | 84 | 1006.3 |
| 20260506023003 | 25 | 211 | 1.6 | 6.4 | 0.00 | 0.00 | 0.00 | 83 | 1006.0 |
| 20260506022503 | 25 | 200 | 0.0 | 6.4 | 0.00 | 0.00 | 0.00 | 82 | 1005.8 |
| 20260506022003 | 25 | 186 | 0.0 | 6.4 | 0.00 | 0.00 | 0.00 | 82 | 1005.8 |
| 20260506021503 | 26 | 189 | 1.6 | 4.8 | 0.00 | 0.00 | 0.00 | 81 | 1005.8 |
| 20260506021003 | 26 | 202 | 1.6 | 4.8 | 0.00 | 0.00 | 0.00 | 81 | 1005.7 |
| 20260506020717 | 26 | 213 | 1.6 | 4.8 | 0.00 | 0.00 | 0.00 | 80 | 1005.6 |
| 20260506020003 | 26 | 200 | 1.6 | 6.4 | 0.00 | 0.00 | 0.00 | 80 | 1005.4 |
| 20260506015503 | 26 | 193 | 1.6 | 6.4 | 0.00 | 0.00 | 0.00 | 80 | 1005.4 |
| 20260506015003 | 26 | 194 | 1.6 | 6.4 | 0.00 | 0.00 | 0.00 | 79 | 1005.3 |
| 20260506014717 | 26 | 194 | 1.6 | 6.4 | 0.00 | 0.00 | 0.00 | 79 | 1005.4 |
| 20260506014003 | 26 | 198 | 1.6 | 4.8 | 0.00 | 0.00 | 0.00 | 79 | 1005.4 |
| 20260506013503 | 26 | 207 | 1.6 | 4.8 | 0.00 | 0.00 | 0.00 | 79 | 1005.3 |
| 20260506013003 | 26 | 200 | 1.6 | 3.2 | 0.00 | 0.00 | 0.00 | 78 | 1005.3 |
| 20260506012503 | 26 | 209 | 0.0 | 6.4 | 0.00 | 0.00 | 0.00 | 78 | 1005.2 |
| 20260506012003 | 26 | 204 | 0.0 | 6.4 | 0.00 | 0.00 | 0.00 | 77 | 1005.3 |
| 20260506011503 | 27 | 209 | 0.0 | 3.2 | 0.00 | 0.00 | 0.00 | 77 | 1005.5 |
| 20260506011218 | 27 | 209 | 0.0 | 3.2 | 0.00 | 0.00 | 0.00 | 76 | 1005.5 |
| 20260506010717 | 27 | 211 | 0.0 | 3.2 | 0.00 | 0.00 | 0.00 | 76 | 1005.5 |
| 20260506010003 | 27 | 208 | 1.6 | 6.4 | 0.00 | 0.00 | 0.00 | 75 | 1005.3 |
| 20260506005503 | 27 | 208 | 1.6 | 6.4 | 0.00 | 0.00 | 0.00 | 74 | 1005.3 |
| 20260506005003 | 27 | 222 | 1.6 | 3.2 | 0.00 | 0.00 | 0.00 | 74 | 1005.5 |
| 20260506004504 | 27 | 224 | 0.0 | 4.8 | 0.00 | 0.00 | 0.00 | 74 | 1005.3 |
| 20260506004003 | 27 | 208 | 1.6 | 4.8 | 0.00 | 0.00 | 0.00 | 73 | 1005.4 |
| 20260506003503 | 27 | 201 | 3.2 | 6.4 | 0.00 | 0.00 | 0.00 | 73 | 1005.2 |
| 20260506003217 | 27 | 201 | 1.6 | 6.4 | 0.00 | 0.00 | 0.00 | 73 | 1005.3 |
| 20260506002717 | 27 | 197 | 1.6 | 6.4 | 0.00 | 0.00 | 0.00 | 73 | 1005.0 |
| 20260506002003 | 28 | 209 | 1.6 | 6.4 | 0.00 | 0.00 | 0.00 | 73 | 1005.0 |
| 20260506001503 | 28 | 209 | 1.6 | 6.4 | 0.00 | 0.00 | 0.00 | 73 | 1005.2 |
| 20260506001003 | 28 | 204 | 1.6 | 8.0 | 0.00 | 0.00 | 0.00 | 72 | 1004.9 |
| 20260506000503 | 28 | 218 | 1.6 | 8.0 | 0.00 | 0.00 | 0.00 | 72 | 1005.2 |
| 20260506000003 | 28 | 220 | 1.6 | 6.4 | 0.00 | 0.00 | 0.00 | 72 | 1004.9 |
| 20260505235716 | 28 | 217 | 1.6 | 6.4 | 0.00 | 0.00 | 0.00 | 72 | 1005.0 |
| 20260505235003 | 28 | 196 | 1.6 | 9.7 | 0.00 | 0.00 | 0.00 | 72 | 1004.9 |
| 20260505234503 | 28 | 200 | 1.6 | 9.7 | 0.00 | 0.00 | 0.00 | 71 | 1004.9 |
| 20260505234003 | 28 | 171 | 1.6 | 6.4 | 0.00 | 0.00 | 0.00 | 71 | 1004.6 |
| 20260505233503 | 28 | 166 | 1.6 | 6.4 | 0.00 | 0.00 | 0.00 | 71 | 1004.9 |
| 20260505233003 | 28 | 205 | 1.6 | 9.7 | 0.00 | 0.00 | 0.00 | 70 | 1004.7 |
| 20260505232503 | 28 | 209 | 1.6 | 9.7 | 0.00 | 0.00 | 0.00 | 70 | 1004.7 |
| 20260505232218 | 28 | 208 | 1.6 | 9.7 | 0.00 | 0.00 | 0.00 | 70 | 1004.9 |
| 20260505231503 | 28 | 224 | 1.6 | 9.7 | 0.00 | 0.00 | 0.00 | 68 | 1004.7 |
| 20260505231003 | 28 | 233 | 3.2 | 8.0 | 0.00 | 0.00 | 0.00 | 69 | 1004.9 |
| 20260505230503 | 28 | 248 | 3.2 | 8.0 | 0.00 | 0.00 | 0.00 | 69 | 1004.4 |
| 20260505230003 | 28 | 236 | 3.2 | 12.9 | 0.00 | 0.00 | 0.00 | 69 | 1004.6 |
| 20260505225503 | 28 | 204 | 3.2 | 12.9 | 0.00 | 0.00 | 0.00 | 69 | 1004.6 |
| 20260505225003 | 28 | 186 | 3.2 | 9.7 | 0.00 | 0.00 | 0.00 | 69 | 1004.5 |
| 20260505224503 | 28 | 206 | 3.2 | 11.3 | 0.00 | 0.00 | 0.00 | 69 | 1004.6 |
| 20260505224003 | 28 | 203 | 4.8 | 11.3 | 0.00 | 0.00 | 0.00 | 69 | 1004.5 |
| 20260505223503 | 28 | 210 | 4.8 | 11.3 | 0.00 | 0.00 | 0.00 | 67 | 1004.6 |
| 20260505223003 | 29 | 207 | 3.2 | 9.7 | 0.00 | 0.00 | 0.00 | 67 | 1004.5 |
| 20260505222503 | 28 | 214 | 3.2 | 11.3 | 0.00 | 0.00 | 0.00 | 67 | 1004.5 |
| 20260505222003 | 28 | 235 | 3.2 | 11.3 | 0.00 | 0.00 | 0.00 | 66 | 1004.4 |
| 20260505221718 | 29 | 227 | 1.6 | 11.3 | 0.00 | 0.00 | 0.00 | 66 | 1004.5 |
| 20260505221003 | 29 | 211 | 4.8 | 12.9 | 0.00 | 0.00 | 0.00 | 65 | 1004.6 |
| 20260505220503 | 29 | 210 | 3.2 | 12.9 | 0.00 | 0.00 | 0.00 | 65 | 1004.7 |
| 20260505220003 | 29 | 214 | 3.2 | 12.9 | 0.00 | 0.00 | 0.00 | 65 | 1004.9 |
| 20260505215503 | 29 | 210 | 3.2 | 9.7 | 0.00 | 0.00 | 0.00 | 66 | 1005.0 |
| 20260505215003 | 28 | 203 | 3.2 | 9.7 | 0.00 | 0.00 | 0.00 | 66 | 1005.2 |
| 20260505214503 | 29 | 201 | 3.2 | 16.1 | 0.00 | 0.00 | 0.00 | 67 | 1005.0 |
| 20260505214003 | 28 | 178 | 3.2 | 16.1 | 0.00 | 0.00 | 0.00 | 67 | 1005.3 |
| 20260505213503 | 29 | 188 | 3.2 | 16.1 | 0.00 | 0.00 | 0.00 | 66 | 1005.2 |
| 20260505213003 | 30 | 215 | 3.2 | 11.3 | 0.00 | 0.00 | 0.00 | 65 | 1005.3 |
| 20260505212503 | 29 | 220 | 3.2 | 11.3 | 0.00 | 0.00 | 0.00 | 65 | 1005.5 |
| 20260505212003 | 29 | 231 | 3.2 | 17.7 | 0.00 | 0.00 | 0.00 | 64 | 1005.2 |
| 20260505211503 | 29 | 233 | 4.8 | 17.7 | 0.00 | 0.00 | 0.00 | 64 | 1005.4 |
| 20260505211003 | 28 | 202 | 4.8 | 22.5 | 0.00 | 0.00 | 0.00 | 67 | 1005.4 |
| 20260505210503 | 28 | 200 | 4.8 | 22.5 | 0.00 | 0.00 | 0.00 | 66 | 1005.4 |
| 20260505210003 | 28 | 213 | 4.8 | 9.7 | 0.00 | 0.00 | 0.00 | 67 | 1005.4 |
| 20260505205503 | 28 | 225 | 3.2 | 9.7 | 0.00 | 0.00 | 0.00 | 67 | 1005.6 |
| 20260505205218 | 28 | 235 | 3.2 | 9.7 | 0.00 | 0.00 | 0.00 | 68 | 1005.5 |
| 20260505204503 | 28 | 236 | 3.2 | 11.3 | 0.00 | 0.00 | 0.00 | 68 | 1005.8 |
| 20260505204003 | 28 | 230 | 3.2 | 11.3 | 0.00 | 0.00 | 0.00 | 68 | 1005.9 |
| 20260505203503 | 28 | 224 | 4.8 | 11.3 | 0.00 | 0.00 | 0.00 | 70 | 1006.1 |
| 20260505203003 | 27 | 196 | 3.2 | 11.3 | 0.00 | 0.00 | 0.00 | 70 | 1006.2 |
| 20260505202717 | 28 | 200 | 3.2 | 11.3 | 0.00 | 0.00 | 0.00 | 69 | 1006.1 |
| 20260505202003 | 27 | 250 | 3.2 | 8.0 | 0.00 | 0.00 | 0.00 | 69 | 1006.4 |
| 20260505201503 | 27 | 239 | 3.2 | 8.0 | 0.00 | 0.00 | 0.00 | 69 | 1006.5 |
| 20260505201003 | 28 | 216 | 3.2 | 11.3 | 0.00 | 0.00 | 0.00 | 69 | 1006.6 |
| 20260505200503 | 27 | 214 | 3.2 | 11.3 | 0.00 | 0.00 | 0.00 | 70 | 1006.5 |
| 20260505200003 | 27 | 229 | 3.2 | 8.0 | 0.00 | 0.00 | 0.00 | 70 | 1006.4 |
| 20260505195503 | 27 | 202 | 3.2 | 12.9 | 0.00 | 0.00 | 0.00 | 71 | 1006.6 |
| 20260505195003 | 27 | 190 | 3.2 | 12.9 | 0.00 | 0.00 | 0.00 | 70 | 1006.6 |
| 20260505194503 | 27 | 198 | 3.2 | 12.9 | 0.00 | 0.00 | 0.00 | 72 | 1006.7 |
| 20260505194004 | 27 | 192 | 3.2 | 12.9 | 0.00 | 0.00 | 0.00 | 72 | 1006.7 |
| 20260505193503 | 27 | 188 | 3.2 | 9.7 | 0.00 | 0.00 | 0.00 | 71 | 1006.8 |
| 20260505193003 | 27 | 204 | 3.2 | 12.9 | 0.00 | 0.00 | 0.00 | 71 | 1006.9 |
| 20260505192503 | 27 | 215 | 3.2 | 12.9 | 0.00 | 0.00 | 0.00 | 72 | 1006.8 |
| 20260505192003 | 27 | 204 | 4.8 | 16.1 | 0.00 | 0.00 | 0.00 | 71 | 1007.2 |
| 20260505191503 | 26 | 204 | 4.8 | 16.1 | 0.00 | 0.00 | 0.00 | 72 | 1006.8 |
| 20260505191003 | 27 | 231 | 3.2 | 16.1 | 0.00 | 0.00 | 0.00 | 71 | 1006.8 |
| 20260505190503 | 27 | 232 | 3.2 | 6.4 | 0.00 | 0.00 | 0.00 | 72 | 1006.9 |
| 20260505190003 | 26 | 236 | 3.2 | 6.4 | 0.00 | 0.00 | 0.00 | 72 | 1007.0 |
| 20260505185717 | 26 | 236 | 1.6 | 12.9 | 0.00 | 0.00 | 0.00 | 73 | 1007.1 |
| 20260505185217 | 26 | 217 | 3.2 | 12.9 | 0.00 | 0.00 | 0.00 | 73 | 1007.1 |
| 20260505184716 | 26 | 221 | 4.8 | 12.9 | 0.00 | 0.00 | 0.00 | 73 | 1007.1 |
| 20260505184003 | 26 | 241 | 3.2 | 8.0 | 0.00 | 0.00 | 0.00 | 73 | 1007.3 |
| 20260505183503 | 26 | 246 | 3.2 | 9.7 | 0.00 | 0.00 | 0.00 | 75 | 1007.3 |
| 20260505183003 | 26 | 174 | 3.2 | 9.7 | 0.00 | 0.00 | 0.00 | 75 | 1007.4 |
| 20260505182503 | 25 | 205 | 3.2 | 9.7 | 0.00 | 0.00 | 0.00 | 76 | 1007.6 |
| 20260505182003 | 26 | 227 | 3.2 | 9.7 | 0.00 | 0.00 | 0.00 | 76 | 1007.5 |
| 20260505181503 | 25 | 239 | 3.2 | 9.7 | 0.00 | 0.00 | 0.00 | 76 | 1007.6 |
| 20260505181003 | 25 | 232 | 3.2 | 6.4 | 0.00 | 0.00 | 0.00 | 77 | 1007.6 |
| 20260505180718 | 25 | 241 | 1.6 | 6.4 | 0.00 | 0.00 | 0.00 | 77 | 1007.4 |
| 20260505180003 | 25 | 244 | 3.2 | 6.4 | 0.00 | 0.00 | 0.00 | 78 | 1007.8 |
| 20260505175503 | 25 | 229 | 3.2 | 9.7 | 0.00 | 0.00 | 0.00 | 77 | 1007.7 |
| 20260505175003 | 25 | 208 | 3.2 | 9.7 | 0.00 | 0.00 | 0.00 | 77 | 1007.7 |
| 20260505174503 | 25 | 192 | 1.6 | 8.0 | 0.00 | 0.00 | 0.00 | 78 | 1007.8 |
| 20260505174003 | 25 | 207 | 1.6 | 11.3 | 0.00 | 0.00 | 0.00 | 79 | 1007.8 |
| 20260505173503 | 24 | 242 | 3.2 | 11.3 | 0.00 | 0.00 | 0.00 | 79 | 1008.0 |
| 20260505173003 | 24 | 233 | 3.2 | 8.0 | 0.00 | 0.00 | 0.00 | 79 | 1007.9 |
| 20260505172503 | 24 | 212 | 3.2 | 8.0 | 0.00 | 0.00 | 0.00 | 79 | 1007.9 |
| 20260505172217 | 24 | 201 | 1.6 | 8.0 | 0.00 | 0.00 | 0.00 | 79 | 1008.0 |
| 20260505171503 | 24 | 197 | 3.2 | 6.4 | 0.00 | 0.00 | 0.00 | 79 | 1008.0 |
| 20260505171003 | 24 | 255 | 3.2 | 11.3 | 0.00 | 0.00 | 0.00 | 79 | 1008.2 |
| 20260505170503 | 24 | 250 | 3.2 | 11.3 | 0.00 | 0.00 | 0.00 | 80 | 1008.0 |
| 20260505170217 | 24 | 223 | 3.2 | 11.3 | 0.00 | 0.00 | 0.00 | 79 | 1008.2 |
| 20260505165503 | 23 | 246 | 1.6 | 9.7 | 0.00 | 0.00 | 0.00 | 81 | 1008.1 |
| 20260505165003 | 23 | 245 | 1.6 | 8.0 | 0.00 | 0.00 | 0.00 | 82 | 1008.1 |
| 20260505164503 | 23 | 244 | 3.2 | 8.0 | 0.00 | 0.00 | 0.00 | 82 | 1008.1 |
| 20260505164003 | 23 | 234 | 3.2 | 6.4 | 0.00 | 0.00 | 0.00 | 82 | 1007.9 |
| 20260505163503 | 23 | 222 | 4.8 | 6.4 | 0.00 | 0.00 | 0.00 | 82 | 1008.0 |
| 20260505163003 | 23 | 246 | 1.6 | 6.4 | 0.00 | 0.00 | 0.00 | 83 | 1008.1 |
| 20260505162503 | 23 | 235 | 1.6 | 9.7 | 0.00 | 0.00 | 0.00 | 84 | 1007.9 |
| 20260505162003 | 23 | 220 | 3.2 | 9.7 | 0.00 | 0.00 | 0.00 | 84 | 1008.1 |
| 20260505161503 | 23 | 218 | 1.6 | 8.0 | 0.00 | 0.00 | 0.00 | 84 | 1008.3 |
| 20260505161003 | 23 | 205 | 3.2 | 17.7 | 0.00 | 0.00 | 0.00 | 84 | 1008.2 |
| 20260505160503 | 23 | 218 | 4.8 | 17.7 | 0.00 | 0.00 | 0.00 | 84 | 1008.0 |
| 20260505160217 | 22 | 214 | 4.8 | 17.7 | 0.00 | 0.00 | 0.00 | 84 | 1008.2 |
| 20260505153218 | 22 | 236 | 4.8 | 12.9 | 0.00 | 0.00 | 0.00 | 86 | 1008.1 |
| 20260505152717 | 22 | 219 | 4.8 | 12.9 | 0.00 | 0.00 | 0.00 | 86 | 1008.2 |
| 20260505152003 | 22 | 235 | 3.2 | 12.9 | 0.00 | 0.00 | 0.00 | 87 | 1008.2 |
| 20260505151504 | 22 | 280 | 3.2 | 12.9 | 0.00 | 0.00 | 0.00 | 87 | 1008.1 |
| 20260505151218 | 22 | 289 | 3.2 | 11.3 | 0.00 | 0.00 | 0.00 | 87 | 1007.8 |
| 20260505150503 | 22 | 230 | 3.2 | 11.3 | 0.00 | 0.00 | 0.00 | 88 | 1007.8 |
| 20260505125003 | 21 | 224 | 4.8 | 11.3 | 0.00 | 0.00 | 0.00 | 90 | 1006.9 |
| 20260505124503 | 21 | 241 | 4.8 | 16.1 | 0.00 | 0.00 | 0.00 | 90 | 1006.8 |
| 20260505124003 | 21 | 263 | 3.2 | 16.1 | 0.00 | 0.00 | 0.00 | 91 | 1006.9 |
| 20260505123503 | 21 | 240 | 3.2 | 12.9 | 0.00 | 0.00 | 0.00 | 91 | 1006.9 |
| 20260505123003 | 21 | 209 | 4.8 | 12.9 | 0.00 | 0.00 | 0.00 | 91 | 1006.8 |
| 20260505122503 | 21 | 202 | 4.8 | 11.3 | 0.00 | 0.00 | 0.00 | 91 | 1007.0 |
| 20260505122003 | 21 | 197 | 4.8 | 14.5 | 0.00 | 0.00 | 0.00 | 91 | 1006.7 |
| 20260505121718 | 21 | 199 | 4.8 | 14.5 | 0.00 | 0.00 | 0.00 | 91 | 1006.5 |
| 20260505121003 | 21 | 199 | 4.8 | 14.5 | 0.00 | 0.00 | 0.00 | 91 | 1006.4 |
| 20260505120503 | 21 | 177 | 4.8 | 9.7 | 0.00 | 0.00 | 0.00 | 90 | 1006.5 |
| 20260505120003 | 21 | 198 | 3.2 | 9.7 | 0.00 | 0.00 | 0.00 | 90 | 1006.5 |
| 20260505115718 | 21 | 226 | 3.2 | 9.7 | 0.00 | 0.00 | 0.00 | 90 | 1006.6 |
| 20260505115217 | 21 | 234 | 3.2 | 12.9 | 0.00 | 0.00 | 0.00 | 89 | 1006.4 |
| 20260505114503 | 21 | 272 | 3.2 | 12.9 | 0.00 | 0.00 | 0.00 | 89 | 1006.6 |
| 20260505114003 | 21 | 235 | 3.2 | 12.9 | 0.00 | 0.00 | 0.00 | 89 | 1006.5 |
| 20260505113503 | 21 | 239 | 3.2 | 12.9 | 0.00 | 0.00 | 0.00 | 89 | 1006.4 |
| 20260505113003 | 21 | 226 | 4.8 | 11.3 | 0.00 | 0.00 | 0.00 | 89 | 1006.6 |
| 20260505112503 | 21 | 210 | 4.8 | 11.3 | 0.00 | 0.00 | 0.00 | 88 | 1006.5 |
| 20260505112217 | 21 | 211 | 4.8 | 11.3 | 0.00 | 0.00 | 0.00 | 88 | 1006.6 |
| 20260505111503 | 21 | 177 | 4.8 | 14.5 | 0.00 | 0.00 | 0.00 | 88 | 1006.4 |
| 20260505111003 | 21 | 170 | 3.2 | 14.5 | 0.00 | 0.00 | 0.00 | 88 | 1006.5 |
| 20260505110503 | 21 | 220 | 3.2 | 8.0 | 0.00 | 0.00 | 0.00 | 88 | 1006.7 |